Weather History for Kalaeloa, HI

Change the Weather History Date:

Monday, February 11, 2013

  Actual Average (PHNL) Record (PHNL)
Temperature  
Mean Temperature 72 °F 73 °F  
Max Temperature 78 °F 80 °F 88 °F (1984)
Min Temperature 66 °F 66 °F 56 °F (1983)
Degree Days  
Heating Degree Days 0 0  
Month to date heating degree days 0  
Since 1 July heating degree days 0  
Cooling Degree Days 7 8  
Month to date cooling degree days 88  
Year to date cooling degree days 342  
Growing Degree Days 22 (Base 50)    
Moisture  
Dew Point 62 °F    
Average Humidity 72    
Maximum Humidity 81    
Minimum Humidity 57    
Precipitation  
Precipitation 0.00 in 0.07 in 2.48 in (1989)
Month to date precipitation 0.70  
Year to date precipitation 3.01  
Snow  
Snow 0.00 in - - ()
Month to date snowfall  
Since 1 July snowfall  
Snow Depth -    
Sea Level Pressure  
Sea Level Pressure 30.21 in    
Wind  
Wind Speed 3 mph (ENE)    
Max Wind Speed 9 mph    
Max Gust Speed 22 mph    
Visibility 10 miles    
Events      
T = Trace of Precipitation, MM = Missing Value Source: NWS Daily Summary

Daily Weather History Graph

Daily Weather History Graph

Search for Another Location

Airport:

Trip Planner

Search our weather history database for the weather conditions in past years. The results will help you decide how hot, cold, wet, or windy it might be!

Date:

Astronomy

Feb. 11, 2013 Rise Set
Actual Time 7:04 AM HST 6:28 PM HST
Civil Twilight 6:42 AM HST 6:51 PM HST
Nautical Twilight 6:15 AM HST 7:17 PM HST
Astronomical Twilight 5:49 AM HST 7:43 PM HST
Moon 7:55 AM HST (2/11) 8:13 PM HST (2/11)
Length of Visible Light 12h 09m
Length of Day
11h 23m
Waxing Crescent, 3% of the Moon is Illuminated
Feb 11
Waxing Crescent
Feb 17
First Quarter
Feb 25
Full
Mar 4
Last Quarter
Mar 11
New

Hourly Weather History & Observations

Time (HST) Temp. Dew Point Humidity Pressure Visibility Wind Dir Wind Speed Gust Speed Precip Events Conditions
12:53 AM 69.1 °F 62.1 °F 78% 30.23 in 10.0 mi Calm Calm - N/A   Clear
1:53 AM 68.0 °F 61.0 °F 78% 30.22 in 10.0 mi Calm Calm - N/A   Clear
2:53 AM 69.1 °F 62.1 °F 78% 30.20 in 10.0 mi Calm Calm - N/A   Mostly Cloudy
3:53 AM 68.0 °F 62.1 °F 81% 30.20 in 10.0 mi Calm Calm - N/A   Partly Cloudy
4:53 AM 68.0 °F 61.0 °F 78% 30.19 in 10.0 mi ENE 3.5 mph - N/A   Scattered Clouds
5:53 AM 66.9 °F 61.0 °F 81% 30.20 in 10.0 mi Calm Calm - N/A   Partly Cloudy
6:53 AM 69.1 °F 63.0 °F 81% 30.22 in 10.0 mi Variable 3.5 mph - N/A   Mostly Cloudy
7:18 AM 69.8 °F 62.6 °F 78% 30.21 in 10.0 mi Variable 3.5 mph - N/A   Mostly Cloudy
7:53 AM 70.0 °F 64.0 °F 81% 30.24 in 10.0 mi Variable 5.8 mph - N/A   Mostly Cloudy
8:53 AM 73.9 °F 64.0 °F 71% 30.23 in 10.0 mi East 8.1 mph - N/A   Clear
9:53 AM 75.0 °F 64.0 °F 69% 30.25 in 10.0 mi Variable 3.5 mph - N/A   Scattered Clouds
10:53 AM 77.0 °F 63.0 °F 62% 30.25 in 10.0 mi ENE 6.9 mph - 0.00 in   Mostly Cloudy
11:53 AM 75.9 °F 63.0 °F 64% 30.23 in 10.0 mi Variable 6.9 mph 17.3 mph N/A   Mostly Cloudy
12:53 PM 77.0 °F 64.0 °F 64% 30.21 in 10.0 mi ENE 8.1 mph - N/A   Mostly Cloudy
1:53 PM 78.1 °F 63.0 °F 60% 30.18 in 10.0 mi NE 9.2 mph 21.9 mph N/A   Mostly Cloudy
2:06 PM 78.8 °F 62.6 °F 57% 30.16 in 10.0 mi NE 8.1 mph 20.7 mph N/A   Scattered Clouds
2:53 PM 78.1 °F 63.0 °F 60% 30.16 in 10.0 mi Variable 6.9 mph 21.9 mph N/A   Scattered Clouds
3:53 PM 77.0 °F 62.1 °F 60% 30.16 in 10.0 mi NE 9.2 mph - N/A   Partly Cloudy
4:53 PM 75.0 °F 62.1 °F 64% 30.16 in 10.0 mi Variable 6.9 mph 19.6 mph N/A   Partly Cloudy
5:53 PM 72.0 °F 61.0 °F 68% 30.18 in 10.0 mi ENE 9.2 mph 18.4 mph N/A   Clear
6:53 PM 70.0 °F 61.0 °F 73% 30.20 in 10.0 mi Variable 4.6 mph - N/A   Clear
7:53 PM 69.1 °F 60.1 °F 73% 30.22 in 10.0 mi Variable 4.6 mph - N/A   Clear
8:53 PM 68.0 °F 61.0 °F 78% 30.24 in 10.0 mi Variable 3.5 mph - N/A   Clear
9:26 PM 68.0 °F 60.8 °F 78% 30.22 in 10.0 mi Variable 4.6 mph - N/A   Partly Cloudy
9:53 PM 69.1 °F 61.0 °F 75% 30.25 in 10.0 mi Variable 4.6 mph - N/A   Partly Cloudy
10:53 PM 69.1 °F 61.0 °F 75% 30.25 in 10.0 mi Variable 5.8 mph - N/A   Mostly Cloudy
11:53 PM 68.0 °F 61.0 °F 78% 30.24 in 10.0 mi Variable 5.8 mph - N/A   Partly Cloudy